sat.trackr.live / text

‹ back to catalog

HAWK-14A

NORAD 68448 · 2026-067AJ

PAYLOAD ACTIVE UNKNOWN

§ Identity

Operator
Country
US
Launch date
2026-03-30
Launch site
AFWTR
Launch vehicle
Mass (kg)
RCS (m²)

External: N2YO · Heavens-Above · Gunter

§ Orbital elements

Epoch: 2026-05-25T03:30:17.811936Z

Period
94.86 min
Inclination
97.4593°
Eccentricity
0.0004534
Mean motion
15.18001266 rev/d
Perigee alt
508.8 km
Apogee alt
515.0 km
Semi-major
6,890.0 km
B*
1.9802e-4
RAAN
104.0172°
Arg perigee
134.0820°
Mean anomaly
226.0787°
Rev number
844

§ Raw data

HAWK-14A1 68448U 26067AJ  26145.14603949  .00003959  00000+0  19802-3 0  99932 68448  97.4593 104.0172 0004534 134.0820 226.0787 15.18001266  8446

JSON: /api/v1/satellites/68448 · /tle

For live sub-satellite position, see the globe view (requires WebGL).

§ Visibility from observer

Set your observer location to see the next 7 days of passes ≥ 10°. The values pass through the URL so the page stays shareable.

No JS? Fill the form by hand. The geolocation button needs JavaScript.